| time (UTC) | temp F | wind direction | speed knots | gust knots | rain 1hr in | rain 24hr in | rain mn in | humidity % | barometer mb |
| 20260906233626 | 80 | 182 | 5.2 | 7.0 | 0.00 | 0.00 | 0.00 | 31 | 1011.1 |
| 20260906232617 | 81 | 166 | 3.5 | 6.1 | 0.00 | 0.00 | 0.00 | 33 | 1011.1 |
| 20260906231629 | 81 | 186 | 4.3 | 6.1 | 0.00 | 0.00 | 0.00 | 32 | 1011.3 |
| 20260906230620 | 81 | 208 | 2.6 | 7.0 | 0.00 | 0.00 | 0.00 | 31 | 1011.4 |
| 20260906225645 | 81 | 221 | 5.2 | 7.8 | 0.00 | 0.00 | 0.00 | 30 | 1011.4 |
| 20260906224616 | 82 | 233 | 3.5 | 8.7 | 0.00 | 0.00 | 0.00 | 30 | 1011.4 |
| 20260906223627 | 82 | 224 | 5.2 | 9.6 | 0.00 | 0.00 | 0.00 | 30 | 1011.7 |
| 20260906222618 | 83 | 232 | 7.0 | 13.9 | 0.00 | 0.00 | 0.00 | 29 | 1011.6 |
| 20260906221613 | 83 | 243 | 7.0 | 15.6 | 0.00 | 0.00 | 0.00 | 28 | 1011.7 |
| 20260906220644 | 84 | 223 | 7.0 | 12.2 | 0.00 | 0.00 | 0.00 | 27 | 1011.8 |
| 20260906215624 | 84 | 244 | 3.5 | 9.6 | 0.00 | 0.00 | 0.00 | 26 | 1011.8 |
| 20260906214616 | 84 | 250 | 7.0 | 12.2 | 0.00 | 0.00 | 0.00 | 26 | 1011.9 |
| 20260906213631 | 83 | 240 | 5.2 | 12.2 | 0.00 | 0.00 | 0.00 | 26 | 1011.9 |
| 20260906212622 | 83 | 245 | 6.1 | 12.2 | 0.00 | 0.00 | 0.00 | 25 | 1012.0 |
| 20260906211652 | 83 | 210 | 5.2 | 7.8 | 0.00 | 0.00 | 0.00 | 26 | 1012.1 |
| 20260906210620 | 82 | 191 | 7.0 | 9.6 | 0.00 | 0.00 | 0.00 | 27 | 1012.2 |
| 20260906205627 | 83 | 200 | 6.1 | 9.6 | 0.00 | 0.00 | 0.00 | 27 | 1012.4 |
| 20260906204618 | 82 | 186 | 4.3 | 9.6 | 0.00 | 0.00 | 0.00 | 25 | 1012.6 |
| 20260906203628 | 82 | 250 | 7.0 | 9.6 | 0.00 | 0.00 | 0.00 | 26 | 1012.7 |
| 20260906202619 | 82 | 210 | 7.0 | 10.4 | 0.00 | 0.00 | 0.00 | 26 | 1013.0 |
| 20260906201614 | 82 | 212 | 6.1 | 8.7 | 0.00 | 0.00 | 0.00 | 25 | 1012.9 |
| 20260906200624 | 82 | 246 | 5.2 | 13.0 | 0.00 | 0.00 | 0.00 | 25 | 1012.9 |
| 20260906195626 | 82 | 210 | 6.1 | 9.6 | 0.00 | 0.00 | 0.00 | 25 | 1013.0 |
| 20260906194617 | 82 | 210 | 7.8 | 11.3 | 0.00 | 0.00 | 0.00 | 25 | 1013.3 |
| 20260906193612 | 81 | 224 | 6.1 | 13.9 | 0.00 | 0.00 | 0.00 | 23 | 1013.2 |
| 20260906192623 | 82 | 246 | 8.7 | 13.9 | 0.00 | 0.00 | 0.00 | 22 | 1013.2 |
| 20260906191613 | 82 | 232 | 8.7 | 15.6 | 0.00 | 0.00 | 0.00 | 21 | 1013.5 |
| 20260906190624 | 82 | 244 | 7.8 | 13.0 | 0.00 | 0.00 | 0.00 | 21 | 1013.4 |
| 20260906185649 | 82 | 272 | 7.8 | 12.2 | 0.00 | 0.00 | 0.00 | 22 | 1013.7 |
| 20260906184620 | 81 | 245 | 8.7 | 13.9 | 0.00 | 0.00 | 0.00 | 21 | 1013.8 |
| 20260906183630 | 81 | 238 | 7.0 | 14.8 | 0.00 | 0.00 | 0.00 | 22 | 1013.9 |
| 20260906182620 | 81 | 242 | 8.7 | 15.6 | 0.00 | 0.00 | 0.00 | 22 | 1014.0 |
| 20260906181635 | 81 | 259 | 10.4 | 15.6 | 0.00 | 0.00 | 0.00 | 22 | 1014.1 |
| 20260906180648 | 81 | 209 | 7.8 | 18.2 | 0.00 | 0.00 | 0.00 | 24 | 1014.3 |
| 20260906175628 | 81 | 191 | 9.6 | 13.9 | 0.00 | 0.00 | 0.00 | 24 | 1014.5 |
| 20260906174619 | 80 | 251 | 6.1 | 12.2 | 0.00 | 0.00 | 0.00 | 27 | 1014.7 |
| 20260906173628 | 80 | 209 | 8.7 | 12.2 | 0.00 | 0.00 | 0.00 | 28 | 1014.7 |
| 20260906172622 | 79 | 198 | 6.1 | 9.6 | 0.00 | 0.00 | 0.00 | 27 | 1014.8 |
| 20260906171612 | 79 | 209 | 7.0 | 14.8 | 0.00 | 0.00 | 0.00 | 28 | 1014.9 |
| 20260906170641 | 79 | 232 | 5.2 | 12.2 | 0.00 | 0.00 | 0.00 | 29 | 1014.9 |
| 20260906165640 | 78 | 227 | 10.4 | 12.2 | 0.00 | 0.00 | 0.00 | 27 | 1014.9 |
| 20260906164635 | 77 | 225 | 6.1 | 9.6 | 0.00 | 0.00 | 0.00 | 30 | 1014.9 |
| 20260906163623 | 75 | 267 | 1.7 | 5.2 | 0.00 | 0.00 | 0.00 | 32 | 1015.1 |
| 20260906162651 | 74 | 251 | 2.6 | 5.2 | 0.00 | 0.00 | 0.00 | 31 | 1015.1 |
| 20260906161619 | 73 | 304 | 1.7 | 3.5 | 0.00 | 0.00 | 0.00 | 32 | 1015.1 |
| 20260906160630 | 72 | 336 | 0.9 | 2.6 | 0.00 | 0.00 | 0.00 | 33 | 1015.2 |
| 20260906155614 | 71 | 274 | 1.7 | 3.5 | 0.00 | 0.00 | 0.00 | 34 | 1015.3 |
| 20260906154625 | 70 | 273 | 0.9 | 1.7 | 0.00 | 0.00 | 0.00 | 36 | 1015.3 |
| 20260906153617 | 68 | 273 | 0.0 | 1.7 | 0.00 | 0.00 | 0.00 | 41 | 1015.3 |
| 20260906152612 | 67 | 273 | 0.9 | 1.7 | 0.00 | 0.00 | 0.00 | 50 | 1015.4 |
| 20260906151644 | 66 | 273 | 0.9 | 3.5 | 0.00 | 0.00 | 0.00 | 52 | 1015.3 |
| 20260906150613 | 67 | 59 | 0.9 | 2.6 | 0.00 | 0.00 | 0.00 | 50 | 1015.3 |
| 20260906145615 | 65 | 98 | 1.7 | 2.6 | 0.00 | 0.00 | 0.00 | 51 | 1015.3 |
| 20260906144627 | 64 | 98 | 0.9 | 1.7 | 0.00 | 0.00 | 0.00 | 46 | 1015.3 |
| 20260906143621 | 62 | 98 | 0.9 | 1.7 | 0.00 | 0.00 | 0.00 | 46 | 1015.2 |
| 20260906142613 | 60 | 98 | 0.0 | 0.9 | 0.00 | 0.00 | 0.00 | 48 | 1015.2 |
| 20260906141624 | 59 | 98 | 0.0 | 0.9 | 0.00 | 0.00 | 0.00 | 50 | 1015.1 |
| 20260906140619 | 57 | 98 | 0.0 | 2.6 | 0.00 | 0.00 | 0.00 | 52 | 1015.1 |
| 20260906135621 | 56 | 98 | 0.0 | 1.7 | 0.00 | 0.00 | 0.00 | 50 | 1014.9 |
| 20260906134633 | 55 | 98 | 0.0 | 2.6 | 0.00 | 0.00 | 0.00 | 50 | 1014.8 |
| 20260906133623 | 55 | 98 | 0.9 | 3.5 | 0.00 | 0.00 | 0.00 | 49 | 1014.8 |
| 20260906132618 | 55 | 98 | 0.0 | 2.6 | 0.00 | 0.00 | 0.00 | 51 | 1014.7 |
| 20260906131629 | 54 | 98 | 0.9 | 2.6 | 0.00 | 0.00 | 0.00 | 52 | 1014.5 |
| 20260906130621 | 54 | 98 | 0.0 | 0.0 | 0.00 | 0.00 | 0.00 | 53 | 1014.6 |
| 20260906125622 | 54 | 98 | 0.0 | 2.6 | 0.00 | 0.00 | 0.00 | 53 | 1014.6 |
| 20260906124618 | 54 | 98 | 1.7 | 3.5 | 0.00 | 0.00 | 0.00 | 53 | 1014.5 |
| 20260906123630 | 54 | 98 | 2.6 | 3.5 | 0.00 | 0.00 | 0.00 | 53 | 1014.4 |
| 20260906122621 | 53 | 98 | 1.7 | 3.5 | 0.00 | 0.00 | 0.00 | 54 | 1014.3 |
| 20260906121612 | 53 | 98 | 0.0 | 0.9 | 0.00 | 0.00 | 0.00 | 55 | 1014.5 |
| 20260906120628 | 53 | 98 | 0.0 | 3.5 | 0.00 | 0.00 | 0.00 | 56 | 1014.4 |
| 20260906115628 | 52 | 101 | 0.9 | 2.6 | 0.00 | 0.00 | 0.00 | 57 | 1014.4 |
| 20260906114619 | 51 | 101 | 0.9 | 2.6 | 0.00 | 0.00 | 0.00 | 59 | 1014.3 |
| 20260906113630 | 51 | 101 | 0.0 | 5.2 | 0.00 | 0.00 | 0.00 | 58 | 1014.3 |
| 20260906112623 | 53 | 140 | 3.5 | 5.2 | 0.00 | 0.00 | 0.00 | 55 | 1014.4 |
| 20260906111613 | 54 | 293 | 0.0 | 3.5 | 0.00 | 0.00 | 0.00 | 54 | 1014.3 |
| 20260906110623 | 54 | 18 | 0.0 | 2.6 | 0.00 | 0.00 | 0.00 | 53 | 1014.3 |
| 20260906105623 | 54 | 18 | 1.7 | 2.6 | 0.00 | 0.00 | 0.00 | 54 | 1014.2 |
| 20260906104639 | 53 | 18 | 1.7 | 2.6 | 0.00 | 0.00 | 0.00 | 55 | 1014.2 |
| 20260906103628 | 53 | 18 | 0.9 | 2.6 | 0.00 | 0.00 | 0.00 | 56 | 1014.1 |
| 20260906102617 | 52 | 287 | 0.9 | 2.6 | 0.00 | 0.00 | 0.00 | 57 | 1014.2 |
| 20260906101626 | 53 | 286 | 0.9 | 1.7 | 0.00 | 0.00 | 0.00 | 57 | 1014.0 |
| 20260906100643 | 54 | 286 | 0.0 | 2.6 | 0.00 | 0.00 | 0.00 | 57 | 1014.1 |
| 20260906095623 | 55 | 286 | 0.0 | 4.3 | 0.00 | 0.00 | 0.00 | 55 | 1014.1 |
| 20260906094613 | 55 | 114 | 0.0 | 0.0 | 0.00 | 0.00 | 0.00 | 52 | 1013.9 |
| 20260906093623 | 55 | 114 | 0.0 | 0.0 | 0.00 | 0.00 | 0.00 | 52 | 1013.8 |
| 20260906092637 | 55 | 114 | 0.0 | 0.0 | 0.00 | 0.00 | 0.00 | 53 | 1013.7 |
| 20260906091629 | 54 | 114 | 0.0 | 0.0 | 0.00 | 0.00 | 0.00 | 53 | 1013.7 |
| 20260906090620 | 55 | 125 | 0.0 | 0.0 | 0.00 | 0.00 | 0.00 | 53 | 1013.7 |
| 20260906085621 | 55 | 125 | 0.0 | 0.0 | 0.00 | 0.00 | 0.00 | 51 | 1013.6 |
| 20260906084616 | 56 | 125 | 0.0 | 0.0 | 0.00 | 0.00 | 0.00 | 50 | 1013.6 |
| 20260906083626 | 56 | 125 | 0.0 | 0.0 | 0.00 | 0.00 | 0.00 | 50 | 1013.5 |
| 20260906082618 | 56 | 128 | 0.0 | 0.0 | 0.00 | 0.00 | 0.00 | 50 | 1013.7 |
| 20260906081612 | 57 | 128 | 0.0 | 2.6 | 0.00 | 0.00 | 0.00 | 48 | 1013.7 |
| 20260906080624 | 58 | 131 | 0.9 | 1.7 | 0.00 | 0.00 | 0.00 | 48 | 1013.7 |
| 20260906075645 | 57 | 131 | 0.9 | 1.7 | 0.00 | 0.00 | 0.00 | 48 | 1013.7 |
| 20260906074615 | 57 | 131 | 0.9 | 3.5 | 0.00 | 0.00 | 0.00 | 48 | 1013.8 |
| 20260906073647 | 58 | 131 | 0.9 | 2.6 | 0.00 | 0.00 | 0.00 | 49 | 1013.8 |
| 20260906072621 | 59 | 131 | 0.0 | 1.7 | 0.00 | 0.00 | 0.00 | 47 | 1013.7 |
| 20260906071616 | 60 | 131 | 0.0 | 1.7 | 0.00 | 0.00 | 0.00 | 46 | 1013.5 |
| 20260906070627 | 61 | 131 | 0.9 | 2.6 | 0.00 | 0.00 | 0.00 | 43 | 1013.4 |
| 20260906065627 | 62 | 131 | 0.0 | 1.7 | 0.00 | 0.00 | 0.00 | 43 | 1013.5 |
| 20260906064623 | 63 | 131 | 0.9 | 2.6 | 0.00 | 0.00 | 0.00 | 41 | 1013.3 |
| 20260906063615 | 64 | 132 | 0.0 | 1.7 | 0.00 | 0.00 | 0.00 | 39 | 1013.4 |
| 20260906062628 | 64 | 132 | 0.0 | 1.7 | 0.00 | 0.00 | 0.00 | 38 | 1013.5 |
| 20260906061640 | 64 | 131 | 0.9 | 2.6 | 0.00 | 0.00 | 0.00 | 38 | 1013.4 |
| 20260906060611 | 64 | 131 | 1.7 | 2.6 | 0.00 | 0.00 | 0.00 | 38 | 1013.3 |
| 20260906055617 | 63 | 131 | 0.0 | 2.6 | 0.00 | 0.00 | 0.00 | 39 | 1013.4 |
| 20260906054629 | 64 | 131 | 0.0 | 0.9 | 0.00 | 0.00 | 0.00 | 39 | 1013.5 |
| 20260906053620 | 64 | 131 | 0.0 | 0.9 | 0.00 | 0.00 | 0.00 | 38 | 1013.3 |
| 20260906052612 | 64 | 131 | 0.0 | 1.7 | 0.00 | 0.00 | 0.00 | 38 | 1013.3 |
| 20260906051648 | 65 | 131 | 0.0 | 0.0 | 0.00 | 0.00 | 0.00 | 38 | 1013.3 |
| 20260906050618 | 65 | 131 | 0.0 | 1.7 | 0.00 | 0.00 | 0.00 | 38 | 1013.3 |
| 20260906045619 | 65 | 131 | 1.7 | 5.2 | 0.00 | 0.00 | 0.00 | 38 | 1013.3 |
| 20260906044631 | 64 | 158 | 1.7 | 5.2 | 0.00 | 0.00 | 0.00 | 41 | 1013.3 |
| 20260906043627 | 61 | 170 | 2.6 | 4.3 | 0.00 | 0.00 | 0.00 | 44 | 1013.3 |
| 20260906042617 | 61 | 192 | 0.0 | 3.5 | 0.00 | 0.00 | 0.00 | 47 | 1013.5 |
| 20260906041627 | 63 | 194 | 2.6 | 5.2 | 0.00 | 0.00 | 0.00 | 45 | 1013.3 |
| 20260906040618 | 66 | 220 | 4.3 | 7.0 | 0.00 | 0.00 | 0.00 | 41 | 1013.2 |
| 20260906035623 | 71 | 117 | 1.7 | 3.5 | 0.00 | 0.00 | 0.00 | 28 | 1012.9 |
| 20260906034613 | 74 | 62 | 0.0 | 5.2 | 0.00 | 0.00 | 0.00 | 22 | 1012.8 |
| 20260906033624 | 74 | 79 | 4.3 | 8.7 | 0.00 | 0.00 | 0.00 | 22 | 1012.7 |
| 20260906032615 | 74 | 76 | 5.2 | 8.7 | 0.00 | 0.00 | 0.00 | 23 | 1012.7 |
| 20260906031631 | 74 | 53 | 4.3 | 7.8 | 0.00 | 0.00 | 0.00 | 24 | 1012.8 |
| 20260906030623 | 74 | 67 | 4.3 | 8.7 | 0.00 | 0.00 | 0.00 | 24 | 1012.8 |
| 20260906025625 | 74 | 60 | 5.2 | 8.7 | 0.00 | 0.00 | 0.00 | 24 | 1012.8 |
| 20260906024616 | 74 | 82 | 7.0 | 9.6 | 0.00 | 0.00 | 0.00 | 25 | 1012.8 |
| 20260906023633 | 74 | 57 | 7.0 | 9.6 | 0.00 | 0.00 | 0.00 | 26 | 1012.7 |
| 20260906022623 | 73 | 83 | 4.3 | 7.0 | 0.00 | 0.00 | 0.00 | 27 | 1012.7 |
| 20260906021614 | 74 | 74 | 2.6 | 4.3 | 0.00 | 0.00 | 0.00 | 27 | 1012.7 |
| 20260906020625 | 76 | 155 | 2.6 | 3.5 | 0.00 | 0.00 | 0.00 | 29 | 1012.7 |
| 20260906015652 | 78 | 236 | 0.0 | 1.7 | 0.00 | 0.00 | 0.00 | 28 | 1012.9 |
| 20260906014621 | 79 | 236 | 1.7 | 2.6 | 0.00 | 0.00 | 0.00 | 28 | 1013.0 |
| 20260906013613 | 81 | 236 | 1.7 | 2.6 | 0.00 | 0.00 | 0.00 | 26 | 1013.0 |
| 20260906012626 | 83 | 236 | 0.9 | 1.7 | 0.00 | 0.00 | 0.00 | 22 | 1013.1 |
| 20260906011620 | 84 | 236 | 0.9 | 1.7 | 0.00 | 0.00 | 0.00 | 21 | 1013.2 |
| 20260906010612 | 85 | 236 | 1.7 | 1.7 | 0.00 | 0.00 | 0.00 | 19 | 1013.2 |
| 20260906005613 | 84 | 236 | 1.7 | 2.6 | 0.00 | 0.00 | 0.00 | 18 | 1013.1 |
| 20260906004625 | 84 | 236 | 3.5 | 6.1 | 0.00 | 0.00 | 0.00 | 19 | 1013.2 |
| 20260906003620 | 85 | 257 | 3.5 | 8.7 | 0.00 | 0.00 | 0.00 | 19 | 1013.1 |
| 20260906002631 | 85 | 244 | 2.6 | 7.0 | 0.00 | 0.00 | 0.00 | 19 | 1013.0 |
| 20260906001621 | 85 | 220 | 2.6 | 6.1 | 0.00 | 0.00 | 0.00 | 19 | 1013.0 |
| 20260906000616 | 85 | 200 | 2.6 | 6.1 | 0.00 | 0.00 | 0.00 | 19 | 1013.0 |
| 20260905235622 | 85 | 196 | 3.5 | 6.1 | 0.00 | 0.00 | 0.00 | 18 | 1013.2 |
| 20260905234614 | 85 | 248 | 3.5 | 11.3 | 0.00 | 0.00 | 0.00 | 18 | 1013.2 |